User: anonymous   Login
Location: Forst
(46.9333°N, 15.4333°E)
Time: 03:13:56
(UTC+00:00)
Language:

AIST 2 - Orbit

View from above orbital plane
View from above orbital plane
View from above satellite
View from above satellite

Ground track
Ground track

The orbit data is extracted from the following two-line orbital elements,

1 39133U 13015D   21165.82575733  .00000230  00000-0  28223-4 0  9990
2 39133  64.8751 352.7316 0009611 212.7003 273.9575 15.05166358447778
Epoch (UTC): 14 June 2021 19:49:05
Eccentricity: 0.0009611
inclination: 64.8751°
perigee height: 544 km
apogee height: 557 km
right ascension of ascending node: 352.7316°
argument of perigee: 212.7003°
revolutions per day: 15.05166358
mean anomaly at epoch: 273.9575°
orbit number at epoch: 44777

The dashed part of the orbit path shows where the satellite is in the earth's shadow,  

DLR